TimeEDT,TemperatureF,Dew PointF,Humidity,Sea Level PressureIn,VisibilityMPH,Wind Direction,Wind SpeedMPH,Gust SpeedMPH,PrecipitationIn,Events,Conditions,WindDirDegrees,DateUTC
12:00 AM,59.0,59.0,100,30.28,10.0,SE,12.7,18.4,N/A,,Mostly Cloudy,140,2013-08-18 04:00:00
12:20 AM,59.0,59.0,100,30.29,10.0,SE,12.7,18.4,N/A,,Mostly Cloudy,130,2013-08-18 04:20:00
12:40 AM,59.0,59.0,100,30.29,10.0,SE,10.4,-,N/A,,Overcast,130,2013-08-18 04:40:00
1:00 AM,59.0,59.0,100,30.28,10.0,SE,10.4,-,N/A,,Overcast,130,2013-08-18 05:00:00
1:20 AM,59.0,59.0,100,30.28,10.0,SE,10.4,-,N/A,,Overcast,140,2013-08-18 05:20:00
1:40 AM,59.0,59.0,100,30.28,10.0,SE,12.7,16.1,N/A,,Overcast,140,2013-08-18 05:40:00
2:00 AM,59.0,59.0,100,30.27,10.0,SE,11.5,-,N/A,,Overcast,140,2013-08-18 06:00:00
2:20 AM,59.0,59.0,100,30.27,10.0,SE,12.7,-,N/A,,Overcast,140,2013-08-18 06:20:00
2:40 AM,59.0,59.0,100,30.27,10.0,SE,10.4,-,N/A,,Overcast,130,2013-08-18 06:40:00
3:00 AM,57.2,57.2,100,30.26,10.0,SE,12.7,-,N/A,,Overcast,140,2013-08-18 07:00:00
3:20 AM,57.2,57.2,100,30.27,10.0,SE,12.7,-,N/A,,Overcast,140,2013-08-18 07:20:00
3:40 AM,55.4,55.4,100,30.26,10.0,SE,12.7,18.4,N/A,,Overcast,130,2013-08-18 07:40:00
4:00 AM,55.4,55.4,100,30.26,7.0,SE,11.5,-,N/A,,Overcast,140,2013-08-18 08:00:00
4:20 AM,55.4,55.4,100,30.27,5.0,SE,9.2,-,N/A,,Overcast,130,2013-08-18 08:20:00
4:40 AM,55.4,-9999,N/A,30.26,3.0,SE,11.5,-,N/A,,Overcast,130,2013-08-18 08:40:00
5:00 AM,55.4,-9999,N/A,30.26,2.5,SE,11.5,-,N/A,,Overcast,130,2013-08-18 09:00:00
5:20 AM,55.4,-9999,N/A,30.26,2.5,SE,11.5,-,N/A,,Overcast,130,2013-08-18 09:20:00
5:40 AM,55.4,-9999,N/A,30.26,2.0,SE,12.7,17.3,N/A,,Overcast,130,2013-08-18 09:40:00
6:00 AM,55.4,-9999,N/A,30.26,1.5,SE,12.7,17.3,N/A,,Overcast,130,2013-08-18 10:00:00
6:20 AM,55.4,-9999,N/A,30.26,1.2,SE,10.4,16.1,N/A,,Overcast,130,2013-08-18 10:20:00
6:40 AM,55.4,-9999,N/A,30.27,1.8,SE,13.8,19.6,N/A,,Overcast,130,2013-08-18 10:40:00
7:00 AM,55.4,-9999,N/A,30.28,1.2,ESE,11.5,17.3,N/A,,Overcast,120,2013-08-18 11:00:00
7:20 AM,53.6,-9999,N/A,30.27,2.0,SE,12.7,17.3,N/A,,Overcast,130,2013-08-18 11:20:00
7:40 AM,53.6,-9999,N/A,30.28,0.8,SE,10.4,-,N/A,,Overcast,130,2013-08-18 11:40:00
8:00 AM,53.6,-9999,N/A,30.28,0.2,ESE,11.5,-,N/A,Fog,Fog,120,2013-08-18 12:00:00
8:20 AM,53.6,-9999,N/A,30.29,1.8,SE,11.5,-,N/A,,Overcast,130,2013-08-18 12:20:00
8:40 AM,53.6,-9999,N/A,30.30,1.8,SE,10.4,-,N/A,,Overcast,130,2013-08-18 12:40:00
9:00 AM,53.6,-9999,N/A,30.29,4.0,ESE,10.4,16.1,N/A,,Haze,120,2013-08-18 13:00:00
9:20 AM,51.8,-9999,N/A,30.30,5.0,SE,9.2,-,N/A,,Haze,130,2013-08-18 13:20:00
9:40 AM,51.8,-9999,N/A,30.29,7.0,ESE,11.5,-,N/A,,Overcast,120,2013-08-18 13:40:00
10:00 AM,51.8,-9999,N/A,30.29,5.0,SE,11.5,16.1,N/A,,Haze,130,2013-08-18 14:00:00
10:20 AM,53.6,-9999,N/A,30.29,7.0,SE,9.2,-,N/A,,Overcast,130,2013-08-18 14:20:00
10:40 AM,53.6,-9999,N/A,30.30,7.0,SE,11.5,-,N/A,,Overcast,140,2013-08-18 14:40:00
11:00 AM,55.4,-9999,N/A,30.30,10.0,SE,10.4,-,N/A,,Mostly Cloudy,130,2013-08-18 15:00:00
11:20 AM,55.4,55.4,100,30.30,10.0,SE,12.7,-,N/A,,Scattered Clouds,130,2013-08-18 15:20:00
11:40 AM,57.2,57.2,100,30.30,10.0,SE,10.4,-,N/A,,Clear,130,2013-08-18 15:40:00
12:00 PM,57.2,57.2,100,30.30,10.0,SE,9.2,-,N/A,,Scattered Clouds,130,2013-08-18 16:00:00
12:20 PM,57.2,57.2,100,30.29,10.0,SE,10.4,-,N/A,,Scattered Clouds,140,2013-08-18 16:20:00
12:40 PM,59.0,59.0,100,30.29,10.0,SE,11.5,-,N/A,,Scattered Clouds,130,2013-08-18 16:40:00
1:00 PM,60.8,60.8,100,30.28,10.0,SE,9.2,-,N/A,,Scattered Clouds,130,2013-08-18 17:00:00
1:20 PM,60.8,60.8,100,30.28,10.0,SE,10.4,-,N/A,,Clear,140,2013-08-18 17:20:00
1:40 PM,62.6,60.8,94,30.28,10.0,SE,10.4,-,N/A,,Clear,140,2013-08-18 17:40:00
2:00 PM,62.6,60.8,94,30.28,10.0,SE,10.4,-,N/A,,Clear,140,2013-08-18 18:00:00
2:20 PM,64.4,62.6,94,30.27,10.0,SE,9.2,-,N/A,,Clear,140,2013-08-18 18:20:00
2:40 PM,62.6,62.6,100,30.27,10.0,SE,6.9,-,N/A,,Clear,130,2013-08-18 18:40:00
3:00 PM,62.6,62.6,100,30.27,10.0,ESE,6.9,-,N/A,,Clear,120,2013-08-18 19:00:00
3:20 PM,64.4,62.6,94,30.26,10.0,ESE,6.9,-,N/A,,Clear,120,2013-08-18 19:20:00
3:40 PM,66.2,62.6,88,30.26,10.0,SSE,8.1,-,N/A,,Clear,150,2013-08-18 19:40:00
4:00 PM,68.0,62.6,83,30.26,10.0,South,5.8,-,N/A,,Scattered Clouds,170,2013-08-18 20:00:00
4:20 PM,64.4,62.6,94,30.25,10.0,ESE,4.6,-,N/A,,Mostly Cloudy,110,2013-08-18 20:20:00
4:40 PM,66.2,62.6,88,30.25,10.0,East,4.6,-,N/A,,Mostly Cloudy,100,2013-08-18 20:40:00
5:00 PM,64.4,62.6,94,30.25,10.0,ESE,4.6,-,N/A,,Scattered Clouds,120,2013-08-18 21:00:00
5:20 PM,64.4,62.6,94,30.25,10.0,ESE,6.9,-,N/A,,Scattered Clouds,120,2013-08-18 21:20:00
5:40 PM,64.4,62.6,94,30.25,10.0,East,3.5,-,N/A,,Scattered Clouds,80,2013-08-18 21:40:00
6:00 PM,62.6,62.6,100,30.25,10.0,ESE,6.9,-,N/A,,Scattered Clouds,120,2013-08-18 22:00:00
6:20 PM,62.6,62.6,100,30.24,10.0,SE,4.6,-,N/A,,Mostly Cloudy,130,2013-08-18 22:20:00
6:40 PM,60.8,60.8,100,30.24,10.0,SE,5.8,-,N/A,,Overcast,130,2013-08-18 22:40:00
7:00 PM,60.8,60.8,100,30.24,7.0,SE,6.9,-,N/A,,Mostly Cloudy,140,2013-08-18 23:00:00
7:20 PM,59.0,59.0,100,30.24,7.0,SE,4.6,-,N/A,,Overcast,140,2013-08-18 23:20:00
7:40 PM,59.0,59.0,100,30.24,4.0,SSE,5.8,-,N/A,,Overcast,150,2013-08-18 23:40:00
8:00 PM,59.0,-9999,N/A,30.24,2.0,SSE,5.8,-,N/A,,Overcast,150,2013-08-19 00:00:00
8:20 PM,59.0,-9999,N/A,30.24,2.5,SSE,5.8,-,N/A,,Mostly Cloudy,150,2013-08-19 00:20:00
8:40 PM,57.2,-9999,N/A,30.24,2.5,SSE,6.9,-,N/A,,Overcast,160,2013-08-19 00:40:00
9:00 PM,57.2,-9999,N/A,30.24,2.0,SSE,4.6,-,N/A,,Overcast,160,2013-08-19 01:00:00
9:20 PM,57.2,-9999,N/A,30.24,1.0,South,5.8,-,N/A,,Mostly Cloudy,170,2013-08-19 01:20:00
9:40 PM,57.2,-9999,N/A,30.25,0.5,SSE,5.8,-,N/A,Fog,Fog,160,2013-08-19 01:40:00
10:00 PM,57.2,-9999,N/A,30.24,0.5,SSE,5.8,-,N/A,Fog,Fog,150,2013-08-19 02:00:00
10:20 PM,57.2,-9999,N/A,30.24,0.2,SE,4.6,-,N/A,Fog,Fog,130,2013-08-19 02:20:00
10:40 PM,57.2,-9999,N/A,30.24,0.2,SSE,5.8,-,N/A,Fog,Fog,150,2013-08-19 02:40:00
11:00 PM,57.2,-9999,N/A,30.24,0.2,SE,5.8,-,N/A,Fog,Fog,140,2013-08-19 03:00:00
11:20 PM,57.2,-9999,N/A,30.24,0.5,South,4.6,-,N/A,Fog,Fog,170,2013-08-19 03:20:00
11:40 PM,57.2,-9999,N/A,30.23,1.0,South,4.6,-,N/A,,Overcast,180,2013-08-19 03:40:00